Weather in Dastakert

Armenia     39˚22′45″N   46˚01′44″E
temp.,
°C
wind,
m/s
gust,
m/s
humid.,
%
clouds,
%
prec.,
mm/h
press.,
hPa
HPBL,
m
3 december, thu
thu301:00−3˚wsw117488 0.0 102721
04:00−4˚wsw117354 0.0 102821
07:00−5˚s00730 0.0 102821
10:00−1˚w01610 0.0 1029100
13:00+2˚wsw11530 0.0 1027577
16:00+2˚wsw11560 0.0 1026584
19:00−3˚sse11830 0.0 102822
22:00−4˚ese11850 0.0 102832
4 december, fri
fri401:00−5˚se00830 0.0 102921
04:00−5˚wsw01780 0.0 102821
07:00−5˚ese00770 0.0 102821
10:00−3˚se01650 0.0 1028136
13:00+1˚wsw11537 0.0 1026572
16:00+1˚ssw115742 0.0 1025639
19:00−4˚ese118892 0.0 102633
22:00−5˚e118879 0.0 102635
5 december, sat
sat501:00−5˚wsw008534 0.0 102621
04:00−5˚wnw018417 0.0 102621
07:00−6˚e11840 0.0 102621
10:00−3˚e11730 0.0 1026157
13:00sse01600 0.0 1023662
16:00ese11629 0.0 1022759
19:00−4˚e229463 0.0 102451
22:00−5˚e119263 0.1 102479
6 december, sun
sun601:00−5˚e119039 0.0 102559
04:00−6˚ene118724 0.0 102449
07:00−7˚e11830 0.0 102454
10:00−4˚e22700 0.0 1025231
13:00−2˚ese21600 0.0 1024774
16:00−2˚ese116333 0.1 1023633
19:00−5˚e229094 0.0 102571
22:00−6˚e229189 0.1 1026110
7 december, mon
mon701:00−7˚e128956 0.0 102782
04:00−7˚e118631 0.1 102756
07:00−8˚e11870 0.0 102829
10:00−5˚ese11750 0.0 1028183
13:00−2˚sse116311 0.0 1027684
16:00−2˚se116547 0.1 1026618
19:00−6˚e228985 0.0 102875
22:00−7˚e118859 0.1 102951